This is the latest recevied weather packets stored in our database for station/object p43g-13. If no packets are shown the sender has not sent any weather packets the latest 10 day(s).
| Time | Temp. | Humidity | Pressure | Rain* | Wind** | Luminosity | Snow |
|---|---|---|---|---|---|---|---|
| 1787436389 | 29.44° C | 78% | 1008.9 hPa | 0 mm | - | 66 W/m² | - |
| 1787436090 | 29.44° C | 80% | 1009.2 hPa | 0 mm | - | 72 W/m² | - |
| 1787435777 | 29.44° C | 80% | 1009.1 hPa | 0 mm | - | 80 W/m² | - |
| 1787435478 | 29.44° C | 81% | 1009.3 hPa | 0 mm | - | 88 W/m² | - |
| 1787435177 | 29.44° C | 81% | 1009.1 hPa | 0 mm | - | 97 W/m² | - |
| 1787434876 | 29.44° C | 81% | 1009.2 hPa | 0 mm | - | 108 W/m² | - |
| 1787434575 | 29.44° C | 79% | 1009.2 hPa | 0 mm | - | 120 W/m² | - |
| 1787434275 | 29.44° C | 79% | 1009.2 hPa | 0 mm | - | 134 W/m² | - |
| 1787433975 | 29.44° C | 79% | 1009.2 hPa | 0 mm | - | 150 W/m² | - |
| 1787433675 | 29.44° C | 78% | 1009.8 hPa | 0 mm | - | 169 W/m² | - |
| 1787433375 | 29.44° C | 78% | 1009.5 hPa | 0 mm | - | 191 W/m² | - |
| 1787433075 | 29.44° C | 78% | 1009.7 hPa | 0 mm | - | 209 W/m² | - |
| 1787432775 | 29.44° C | 79% | 1009.6 hPa | 0 mm | - | 223 W/m² | - |
| 1787432475 | 30° C | 77% | 1009.7 hPa | 0 mm | - | 254 W/m² | - |
| 1787432175 | 30° C | 78% | 1009.7 hPa | 0 mm | - | 282 W/m² | - |
| 1787431875 | 30° C | 77% | 1009.8 hPa | 0 mm | - | 309 W/m² | - |
| 1787431575 | 30° C | 77% | 1010 hPa | 0 mm | - | 317 W/m² | - |
| 1787431300 | 29.44° C | 77% | 1009.9 hPa | 0 mm | - | 343 W/m² | - |
| 1787430975 | 30° C | 79% | 1009.9 hPa | 0 mm | - | 417 W/m² | - |
| 1787430676 | 30° C | 78% | 1009.8 hPa | 0 mm | - | 249 W/m² | - |
| 1787430375 | 30.56° C | 77% | 1009.8 hPa | 0 mm | - | 295 W/m² | - |
| 1787430075 | 30° C | 78% | 1009.9 hPa | 0 mm | - | 441 W/m² | - |
| 1787429774 | 30° C | 77% | 1010.1 hPa | 0 mm | - | 445 W/m² | - |
| 1787429474 | 30.56° C | 77% | 1009.9 hPa | 0 mm | - | 464 W/m² | - |
| 1787429175 | 30° C | 77% | 1010 hPa | 0 mm | - | 432 W/m² | - |
* Rain latest hour (hover to see other rain measurements)
** Current wind speed in m/s (hover to see current wind gust speed)